Home > Weather > Galway > Past weeks

Flag for Ireland Weather for the Past 2 Weeks in Galway, Ireland

Now
41 °F

Passing clouds.


Feels Like: 32 °F
Forecast: 37 / 42 °F
Wind: 17 mph from Northeast

Location: Shannon Airport

Current Time: Feb 14, 2016 at 11:22:26 AM

Latest Report: Feb 14, 2016 at 11:00 AM


Visibility: N/A

Pressure: 29.59 "Hg

Humidity: 81%

Dew point: 36 °F

Location of GalwayLocation

Historic Weather in Galway — Graph

°F

Galway Temperature Yesterday

Maximum temperature yesterday: 43 °F (at 12:00 AM)
Minimum temperature yesterday: 39 °F (at 8:00 PM)
Average temperature yesterday: 42 °F

High & Low Weather Summary for the Past Weeks

 TemperatureHumidityPressure
High54 °F (Jan 31, 10:00 AM)100% (Jan 31, 4:00 AM)30.39 "Hg (Jan 31, 4:00 AM)
Low36 °F (Feb 9, 3:00 AM)54% (Feb 3, 11:30 AM)28.65 "Hg (Feb 8, 3:30 AM)
Average43 °F85%29.52 "Hg
* Reported Jan 30 10:30 AM — Feb 14 10:00 AM, Galway, Weather by CustomWeather, © 2016

Note: Actual official high and low records may vary slightly from our data, if they occured in-between our weather recording intervals... More about our weather records

Advertising

Galway Weather History for the Previous 24 Hours

 ConditionsComfort  
Time TempWeatherWind HumidityBarometerVisibility
10:00 AM
Sun, Feb 14
39 °FPartly sunny.17 mph87%29.53 "HgN/A
9:30 AM37 °FPassing clouds.16 mph87%29.50 "HgN/A
9:00 AM37 °FPassing clouds.15 mph87%29.47 "HgN/A
8:30 AM37 °FPassing clouds.14 mph87%29.45 "HgN/A
8:00 AM37 °FScattered clouds.12 mph87%29.42 "HgN/A
7:30 AM37 °FPassing clouds.12 mph93%29.39 "HgN/A
7:00 AM39 °FOvercast.10 mph87%29.36 "HgN/A
6:30 AM39 °FOvercast.13 mph87%29.33 "HgN/A
6:00 AM39 °FOvercast.13 mph87%29.30 "HgN/A
5:30 AM39 °FPassing clouds.12 mph87%29.30 "HgN/A
5:00 AM39 °FPartly cloudy.9 mph93%29.27 "HgN/A
4:30 AM39 °FPartly cloudy.9 mph93%29.24 "HgN/A
4:00 AM39 °FPartly cloudy.7 mph93%29.24 "HgN/A
3:30 AM39 °FPartly cloudy.8 mph87%29.21 "HgN/A
3:00 AM39 °FPartly cloudy.14 mph87%29.21 "HgN/A
2:30 AM39 °FPartly cloudy.14 mph87%29.21 "HgN/A
2:00 AM39 °FPartly cloudy.15 mph87%29.18 "HgN/A
1:30 AM39 °FPartly cloudy.14 mph87%29.18 "HgN/A
1:00 AM39 °FLight rain. Overcast.12 mph87%29.18 "Hg4 mi
12:30 AM39 °FLight rain. Partly cloudy.12 mph93%29.15 "Hg4 mi
12:00 AM39 °FLight rain. Passing clouds.12 mph93%29.15 "Hg4 mi
11:30 PM
Sat, Feb 13
39 °FLight rain. Passing clouds.9 mph93%29.15 "Hg4 mi
11:00 PM39 °FLight rain. Passing clouds.9 mph93%29.15 "Hg4 mi
10:30 PM39 °FLight rain. Partly cloudy.10 mph93%29.15 "Hg4 mi
10:00 PM39 °FLight rain. Partly cloudy.10 mph93%29.15 "Hg4 mi
9:30 PM39 °FLight rain. Partly cloudy.10 mph93%29.15 "Hg5 mi
9:00 PM39 °FLight rain. Partly cloudy.8 mph93%29.15 "Hg4 mi
8:30 PM39 °FLight rain. Partly cloudy.9 mph93%29.12 "Hg4 mi
8:00 PM39 °FLight rain. Passing clouds.10 mph93%29.12 "Hg4 mi
7:30 PM41 °FLight rain. Passing clouds.14 mph87%29.12 "Hg4 mi
7:00 PM41 °FLight rain. Passing clouds.10 mph87%29.12 "Hg5 mi
6:30 PM41 °FLight rain. Mostly cloudy.14 mph93%29.12 "Hg6 mi
6:00 PM41 °FLight rain. Mostly cloudy.13 mph93%29.12 "Hg5 mi
5:30 PM41 °FDrizzle. Broken clouds.14 mph93%29.12 "HgN/A
5:00 PM41 °FDrizzle. Broken clouds.16 mph93%29.12 "Hg5 mi
4:30 PM43 °FLight rain. Partly sunny.12 mph87%29.09 "HgN/A
4:00 PM43 °FLight rain. Broken clouds.13 mph87%29.09 "HgN/A
3:30 PM43 °FLight rain. More clouds than sun.10 mph93%29.09 "HgN/A
3:00 PM43 °FLight rain. Cloudy.10 mph93%29.09 "HgN/A
2:30 PM43 °FLight rain. Broken clouds.9 mph93%29.09 "HgN/A
2:00 PM43 °FLight rain. Partly sunny.8 mph93%29.09 "HgN/A
1:30 PM43 °FLight rain. Partly sunny.8 mph93%29.12 "HgN/A
1:00 PM43 °FLight rain. Partly sunny.8 mph93%29.12 "HgN/A
12:30 PM43 °FLight rain. Partly sunny.10 mph93%29.12 "HgN/A
12:00 PM43 °FLight rain. Broken clouds.9 mph93%29.12 "HgN/A
11:30 AM43 °FLight rain. Mostly cloudy.8 mph93%29.12 "HgN/A
11:00 AM43 °FLight rain. Partly sunny.6 mph93%29.09 "Hg6 mi
Weather by CustomWeather, © 2016

See weather overviewHow to use our weather pages